This is the latest recevied weather packets stored in our database for station/object KE0TNI-13. If no packets are shown the sender has not sent any weather packets the latest 10 day(s).
| Time | Temp. | Humidity | Pressure | Rain* | Wind** | Luminosity | Snow |
|---|---|---|---|---|---|---|---|
| 1777798955 | 1.67° C | 60% | 1023 hPa | 0 mm | - | 0 W/m² | - |
| 1777798650 | 1.11° C | 60% | 1023 hPa | 0 mm | - | 0 W/m² | - |
| 1777798347 | 1.67° C | 60% | 1023 hPa | 0 mm | - | 0 W/m² | - |
| 1777798044 | 1.67° C | 58% | 1023.1 hPa | 0 mm | - | 0 W/m² | - |
| 1777797743 | 1.67° C | 58% | 1023.1 hPa | 0 mm | - | 0 W/m² | - |
| 1777797440 | 1.11° C | 59% | 1023.1 hPa | 0 mm | - | 0 W/m² | - |
| 1777797137 | 1.67° C | 60% | 1023.2 hPa | 0 mm | - | 0 W/m² | - |
| 1777796833 | 1.11° C | 59% | 1023.2 hPa | 0 mm | - | 0 W/m² | - |
| 1777796530 | 1.11° C | 59% | 1023.3 hPa | 0 mm | - | 0 W/m² | - |
| 1777796225 | 1.67° C | 58% | 1023.1 hPa | 0 mm | - | 0 W/m² | - |
| 1777795922 | 1.11° C | 59% | 1023.3 hPa | 0 mm | - | 0 W/m² | - |
| 1777795618 | 1.67° C | 59% | 1023.3 hPa | 0 mm | - | 0 W/m² | - |
| 1777795315 | 1.67° C | 59% | 1023.3 hPa | 0 mm | - | 0 W/m² | - |
| 1777795012 | 1.67° C | 60% | 1023.2 hPa | 0 mm | - | 0 W/m² | - |
| 1777794708 | 1.11° C | 60% | 1023.5 hPa | 0 mm | - | 0 W/m² | - |
| 1777794404 | 1.67° C | 60% | 1023.3 hPa | 0 mm | - | 0 W/m² | - |
| 1777794099 | 1.67° C | 59% | 1023.6 hPa | 0 mm | - | 0 W/m² | - |
| 1777793796 | 2.22° C | 58% | 1023.6 hPa | 0 mm | - | 0 W/m² | - |
| 1777793495 | 2.78° C | 56% | 1023.6 hPa | 0 mm | - | 0 W/m² | - |
| 1777793192 | 3.33° C | 53% | 1023.6 hPa | 0 mm | - | 0 W/m² | - |
| 1777792889 | 3.33° C | 53% | 1023.6 hPa | 0 mm | - | 0 W/m² | - |
| 1777792586 | 3.33° C | 55% | 1023.6 hPa | 0 mm | - | 0 W/m² | - |
| 1777792282 | 2.78° C | 56% | 1024 hPa | 0 mm | - | 0 W/m² | - |
| 1777791979 | 2.78° C | 56% | 1023.6 hPa | 0 mm | - | 0 W/m² | - |
| 1777791678 | 2.78° C | 58% | 1023.9 hPa | 0 mm | - | 0 W/m² | - |
* Rain latest hour (hover to see other rain measurements)
** Current wind speed in m/s (hover to see current wind gust speed)